ROMMA est une association bénévole à but non lucratif. Votre soutien est indispensable : ADHERER à ROMMA ou FAIRE un DON

Voiron - (38, Isère)

Voironnais (300 m)   Longitude: 05° 35' E   Latitude: 45° 23' N Station partenaire n°109
 

Détail journalier du     <<     >>

Température Precipitation Humidité Pression Vent Dir Rafale Dir. rafale Ensol.
Heure (°C) (mm) (%) (hPa) (km/h) (km/h) (min)
01:00 17.907410231NNO3NNO0
02:00 17.107710232NNO5NNO0
03:00 16.607910231NNO5NNO0
04:00 15.408210231NNO3NNO0
05:00 14.908210231NNO6NNO0
06:00 14.4084102303NNO0
07:00 14.708310231NNO5NNO0
08:00 18.407110232NNO6NNO60
09:00 18.606810234NNE15SSE60
10:00 20.106410236S15SSO60
11:00 21.406310236S15SE60
12:00 22.906110235SSO11SSO60
13:00 24.405810226S15SSE60
14:00 26.105310217N16S60
15:00 27.204910216S15OSO60
16:00 27.904210206OSO18SO60
17:00 28.404210207OSO19OSO60
18:00 28.504310196O16NNO60
19:00 28.604210195OSO15SO60
20:00 27.704910195OSO13O60
21:00 26.505510193O10O30
22:00 23.406410192NNO6NNO0
23:00 21.706810201NNO5NNO0
minuit 20.6073102005NNO0

Graphique du 01-06-2019

 

Serveur OMMA